Location: Oberwangen
(47.4286°N, 8.9679°E)
Time: 05:29:52
(UTC+00:00)

Cosmos 1900 - Visible Passes

Search period start: 18 October 2021 00:00
Search period end: 28 October 2021 00:00
Orbit: 691 x 730 km, 66.1° (Epoch: 17 October)

Date Brightness Start Highest point End Pass type
(mag) Time Alt. Az. Time Alt. Az. Time Alt. Az.
18 Oct 6.8 05:02:04 10° S 05:06:08 27° ESE 05:10:12 10° NE visible
19 Oct 7.5 04:09:44 10° SE 04:11:43 12° ESE 04:13:42 10° E visible
20 Oct 5.8 04:53:24 10° S 04:57:57 40° ESE 05:02:30 10° NE visible
21 Oct 7.0 04:00:01 10° SSE 04:03:25 19° ESE 04:06:50 10° ENE visible
22 Oct 4.9 04:45:02 10° SSW 04:49:49 61° ESE 04:54:39 10° NE visible
23 Oct 6.2 03:51:01 10° S 03:55:11 29° ESE 03:59:21 10° NE visible
24 Oct 7.1 02:58:26 10° SE 03:00:45 13° ESE 03:03:04 10° ENE visible
24 Oct 4.3 04:36:52 10° SSW 04:41:46 89° SE 04:46:41 10° NE visible
25 Oct 5.4 03:43:05 14° S 03:47:00 43° ESE 03:51:38 10° NE visible
25 Oct 5.0 05:24:26 10° WSW 05:28:52 34° NW 05:33:20 10° NNE visible
26 Oct 6.5 02:50:54 18° SE 02:52:28 21° ESE 02:56:02 10° ENE visible
26 Oct 4.3 04:30:01 17° SW 04:33:46 63° NW 04:38:38 10° NNE visible
27 Oct 4.6 03:37:35 45° S 03:38:54 65° ESE 03:43:45 10° NE visible
27 Oct 5.4 05:17:02 10° W 05:21:05 25° NW 05:25:09 10° NNE visible
